Regional Weather Roundup
Issued by NWS

Home | Current Version | Previous Version | Text Only | Print | Product List | Glossary On
Versions: 1 2 3 4 5 6 7 8 9 10 11 12 13 14 15 16 17 18 19 20 21 22 23 24 25 26 27 28 29 30 31 32 33 34 35 36 37 38 39 40 41 42 43 44 45 46 47 48 49 50
000
ASUS45 KBOU 272007
RWRCO

WEATHER ROUNDUP FOR COLORADO
NATIONAL WEATHER SERVICE DENVER/BOULDER CO
100 PM MST THU NOV 27 2014

NOTE: "FAIR" INDICATES FEW OR NO CLOUDS BELOW 12000 FEET WITH NO
SIGNIFICANT WEATHER AND/OR OBSTRUCTIONS TO VISIBILITY.

COZ001>005-013-030-031-272100-
...NORTHWEST COLORADO...

CITY           SKY/WX    TMP DP  RH WIND       PRES   REMARKS
CRAIG          PTSUNNY   46  27  47 E7        30.31F
HAYDEN         PTSUNNY   39  25  56 SE6       30.32F
MEEKER         SUNNY     51  28  41 CALM      30.34F
MOUNT WERNER   NOT AVBL
STEAMBOAT SPGS PTSUNNY   34  27  76 CALM      30.32F
WALDEN         CLOUDY    43  18  36 SW16G25   30.29F
$$

COZ006>008-011-272100-
...WEST CENTRAL VALLEYS...

CITY           SKY/WX    TMP DP  RH WIND       PRES   REMARKS
GRAND JUNCTION SUNNY     50  26  39 VRB3      30.38F
MONTROSE       SUNNY     52  25  35 NW6       30.39F
EAGLE          MOSUNNY   50  25  37 CALM      30.38F
RIFLE          MOSUNNY   43  28  55 CALM      30.40F
DELTA          SUNNY     53  28  36 CALM      30.38F
NUCLA          SUNNY     52  25  35 CALM      30.42F
$$

COZ017>023-064>068-272100-
...SOUTHWEST COLORADO...

CITY           SKY/WX    TMP DP  RH WIND       PRES   REMARKS
DURANGO        SUNNY     52  19  27 W6        30.40F
CORTEZ         SUNNY     55  23  28 SW12      30.40F
PAGOSA SPRINGS SUNNY     53  12  20 SW6       30.42F
TELLURIDE      NOT AVBL
WOLF CREEK PAS SUNNY     39   9  28 MISG      30.57S
$$

COZ009-010-012-014-032>034-037-058>063-272100-
...CENTRAL COLORADO...

CITY           SKY/WX    TMP DP  RH WIND       PRES   REMARKS
ASPEN          SUNNY     42  24  49 N8        30.39F
BUENA VISTA    SUNNY     56  13  18 W16G25    30.33F
COPPER MTN     MOSUNNY   34  16  47 W21G38    30.47F WCI  22
BERTHOUD PASS  NOT AVBL
COTTONWOOD PAS SUNNY     45  12  26 N6G28     30.38F
GUNNISON       SUNNY     34  19  55 CALM      30.50F
KREMMLING      MOSUNNY   50  19  29 W10       30.35F
LEADVILLE      SUNNY     42  15  33 NW8G21    30.41F
MONARCH PASS   SUNNY     28  14  54 MISG      30.58S
SALIDA         SUNNY     58  13  17 SW18G35   30.38F
SUNLIGHT       SUNNY     34  28  80 CALM      30.48F
WILKERSON PASS MOSUNNY   41   9  26 W14G38    30.43F
$$

COZ069>075-272100-
...SAN LUIS VALLEY/SANGRE DE CRISTO MOUNTAINS...

CITY           SKY/WX    TMP DP  RH WIND       PRES   REMARKS
ALAMOSA        SUNNY     48  19  31 CALM      30.40F
LA VETA PASS   PTSUNNY   43  18  36 SW7G18    30.45F
SAGUACHE       SUNNY     46  21  36 S7        30.41F
$$

COZ035-036-038>040-272100-
...NORTHERN COLORADO FRONT RANGE...

CITY           SKY/WX    TMP DP  RH WIND       PRES   REMARKS
DENVER INTL AP CLOUDY    63  17  17 W14G29    30.14F
DMNS CITY PARK   N/A     62  16  16 E8        30.14F
AURORA         PTSUNNY   64  13  13 NW6       30.17F
FRONT RANGE AP NOT AVBL
ERIE MUNI ARPT CLOUDY    64  15  15 NW6       30.14F
BOULDER MUN AP CLOUDY    61  19  20 SW6       30.13F
CENTENNIAL     CLOUDY    63  12  13 E7        30.16F
BROOMFIELD     NOT AVBL
FORT COLLINS   PTSUNNY   59  28  31 SE8       30.12F
LONGMONT       PTSUNNY   66  18  16 W16G35    30.13F
$$

COZ041-046-047-076>085-087-088-272100-
...PIKES PEAK/PALMER DIVIDE AND SOUTHERN FOOTHILLS...

CITY           SKY/WX    TMP DP  RH WIND       PRES   REMARKS
COLO. SPRINGS  PTSUNNY   65  10  11 S8        30.21F
A. F. ACADEMY  PTSUNNY   63  10  12 W14       30.21F
ELLICOTT       NOT AVBL
FALCON         NOT AVBL
FORT CARSON    MOSUNNY   66  14  13 S17G24    30.18F
LIMON          PTSUNNY   65  12  12 NW18      30.15F
MONUMENT HILL  PTSUNNY   59  12  15 W13       30.23F
TRINIDAD       CLOUDY    60  24  25 SE5       30.23F
$$

COZ042>045-048>051-090-091-272100-
...NORTHEAST COLORADO...

CITY           SKY/WX    TMP DP  RH WIND       PRES   REMARKS
GREELEY ARPT   PTSUNNY   63  28  27 SW8       30.11F
AKRON          CLOUDY    52  30  43 W13       30.11F
BURLINGTON     MOSUNNY   61  24  24 SW14      30.12F
WRAY           SUNNY     67  27  22 SW12      30.08F
STERLING       CLOUDY    41  34  75 S6        30.09F
HOLYOKE        SUNNY     59  39  47 SW3       30.09F
FORT MORGAN    CLOUDY    45  30  55 W12       30.11F
$$

COZ086-089-092>099-272100-
...SOUTHEAST COLORADO...

CITY           SKY/WX    TMP DP  RH WIND       PRES   REMARKS
PUEBLO         MOSUNNY   67  22  18 SW8       30.16F
LA JUNTA       MOSUNNY   63  28  26 W9        30.15F
LAMAR          SUNNY     59  29  31 NW5       30.14F
SPRINGFIELD      N/A     62  24  23 SW10      30.17F
$$



USA.gov is the U.S. government's official web portal to all federal, state and local government web resources and services.